Theta_e
308 309 309 307 305 302 304 306 307 308 308 308 308 309 310 309 313 318 317 312 312 314 312 318 318 318 315 317 317 318 317 320 319 321 321 323 321 324 324 325 325 327 326 327 336
308 308 309 309 309 307 303 304 306 307 307 308 308 308 309 311 313 319 316 309 308 308 318 318 317 317 316 316 317 315 313 317 318 319 319 320 320 322 321 321 323 325 326 326 327
309 310 309 309 309 308 306 304 304 306 307 307 308 309 309 309 319 320 315 311 309 309 310 314 315 315 316 317 317 316 314 315 316 318 318 318 319 320 320 320 321 321 324 324 325
310 310 310 310 309 309 307 305 304 306 306 307 308 308 308 314 320 317 317 312 310 309 315 316 316 316 315 314 317 314 317 318 317 317 317 316 318 318 318 318 320 320 320 323 324
310 310 310 310 309 308 307 305 304 304 305 306 307 307 308 315 318 316 315 313 314 314 315 315 316 316 314 314 315 314 314 316 316 316 316 317 317 317 318 318 318 319 319 320 322
309 309 310 310 309 307 306 305 305 304 305 306 307 307 308 315 316 315 314 314 315 315 315 314 314 315 315 315 313 315 315 316 317 317 317 315 315 317 317 318 319 319 318 319 320
308 308 310 310 309 307 306 306 307 309 308 307 307 308 308 308 315 314 314 314 315 315 315 314 314 314 314 312 314 314 312 312 314 315 315 317 315 315 316 316 317 317 319 319 319
310 307 309 309 308 307 309 311 311 311 309 307 307 309 309 314 314 314 312 313 315 314 315 314 314 314 314 314 313 311 311 311 312 313 314 315 315 315 316 316 316 316 317 318 319
312 307 308 309 307 310 312 313 313 312 311 312 310 318 317 315 315 314 313 312 312 313 312 313 313 313 314 311 310 310 311 310 312 312 314 313 314 316 317 316 316 316 316 317 318
315 307 308 309 310 311 313 313 312 315 316 317 316 316 316 315 314 313 313 312 312 313 313 314 314 310 310 311 313 313 312 312 313 313 313 313 313 314 316 317 317 318 318 317 318
314 307 308 309 312 314 314 312 311 317 312 311 312 313 312 313 313 313 313 313 312 313 311 313 312 312 312 313 314 314 314 314 314 315 314 313 312 313 314 316 315 316 317 317 317
314 307 308 308 313 314 315 313 311 310 311 311 312 313 313 313 313 312 313 313 313 311 312 311 312 313 315 315 315 314 314 312 313 315 315 316 314 314 315 315 316 316 317 316 316
314 307 308 308 313 314 314 309 309 311 311 313 315 314 313 312 313 313 313 312 312 312 311 311 314 316 316 315 315 314 313 313 314 317 316 317 317 315 316 316 316 316 317 316 316
313 307 307 308 312 315 311 308 309 311 313 317 315 314 313 313 313 312 312 312 312 311 312 313 315 316 316 316 315 314 313 315 316 317 317 318 318 315 316 317 317 316 316 316 316
313 307 309 310 312 309 307 308 311 315 319 315 314 313 309 311 310 311 311 313 313 313 314 314 316 316 316 316 316 314 314 314 316 317 316 317 317 315 315 316 316 315 316 316 316
313 308 310 308 310 308 308 312 313 318 318 313 310 309 310 311 311 313 313 313 315 317 317 317 317 316 316 316 315 316 314 313 315 315 318 317 318 316 316 315 315 315 316 318 318
312 310 312 309 309 309 313 314 316 312 311 309 308 310 311 310 311 311 312 313 315 317 318 317 315 316 316 316 316 316 315 316 315 316 316 314 319 318 316 317 317 316 317 318 318
311 313 314 310 308 310 313 314 317 310 309 309 310 311 311 312 311 312 313 314 316 317 316 315 317 315 315 315 315 314 317 320 322 320 316 315 316 315 315 318 318 319 318 320 318
311 315 315 311 309 311 313 310 309 309 310 311 312 311 312 313 314 314 313 315 318 317 316 316 317 315 314 314 314 315 314 312 317 316 315 314 314 314 317 319 319 320 318 317 316
313 314 315 312 310 311 313 312 311 310 311 311 312 312 312 313 314 313 313 314 316 316 314 315 316 314 313 312 314 314 314 311 311 312 315 314 314 314 318 320 318 318 317 317 319
313 314 313 311 312 312 312 311 312 310 311 313 313 312 313 314 313 313 314 314 315 315 314 314 315 313 312 313 314 314 314 316 317 318 320 319 316 315 317 319 318 317 318 317 318
311 314 312 310 311 312 310 312 312 313 312 313 313 313 314 314 314 314 314 315 314 314 315 313 314 314 313 312 313 314 318 318 321 322 322 323 320 316 316 317 316 318 318 317 318
311 313 312 310 309 311 312 312 313 313 313 313 313 314 314 315 314 315 314 313 313 313 314 312 314 315 314 315 317 316 315 317 316 317 318 321 318 315 315 315 316 316 317 317 317
312 312 311 309 309 311 312 313 313 312 312 311 312 314 314 314 313 314 314 313 313 314 313 314 311 314 314 314 313 314 313 314 315 317 317 317 317 316 316 315 313 315 316 316 318
314 313 311 308 308 311 312 313 312 311 310 310 311 313 313 309 313 314 315 314 313 313 313 313 315 313 313 313 313 314 314 315 315 317 319 316 318 316 315 313 313 315 314 313 316
314 313 311 310 310 311 311 310 310 311 310 311 311 312 314 313 313 314 313 313 314 313 313 312 314 314 314 313 313 314 314 314 314 314 314 313 311 311 309 310 312 312 312 312 312
314 311 310 310 311 310 310 310 310 309 310 311 312 313 315 314 313 313 313 313 313 313 314 311 309 312 314 313 312 314 310 309 309 309 309 310 309 309 309 310 308 308 309 309 310
Wind_Speed
28 26 24 22 21 17 12 8 7 7 9 11 12 14 16 10 6 3 5 6 8 10 1 4 1 3 6 11 16 20 6 12 11 11 12 25 14 36 30 24 30 15 6 9 13
29 27 26 26 23 20 17 13 10 7 7 7 8 10 13 14 10 6 2 8 8 5 5 2 8 6 15 11 10 7 4 10 7 8 12 19 21 20 23 25 25 26 9 10 5
31 29 28 27 26 22 19 15 12 11 10 9 8 10 12 16 4 4 3 10 8 7 2 6 5 7 10 14 21 16 13 13 19 28 31 24 25 29 18 20 20 21 30 15 22
33 31 29 27 25 23 21 17 15 13 13 12 11 11 14 10 4 7 4 8 4 3 7 7 9 13 5 7 17 12 22 24 26 31 29 18 28 21 24 28 33 32 30 28 22
36 34 29 26 23 21 19 17 14 14 14 15 14 12 13 8 8 1 8 4 5 5 5 8 9 14 6 9 17 7 7 20 23 23 21 23 18 21 30 36 39 36 32 32 28
39 37 31 26 21 18 16 14 14 14 14 14 12 11 8 5 2 4 9 8 7 6 11 11 14 16 8 10 7 17 23 22 28 27 28 14 14 22 25 33 34 37 35 33 33
41 39 31 27 20 15 13 12 11 14 14 12 12 11 8 13 4 10 7 8 6 7 9 10 13 13 17 9 14 20 14 16 17 18 13 24 19 18 29 33 41 34 32 32 34
44 40 33 25 17 15 13 9 10 13 13 9 6 9 7 0 5 8 8 14 9 12 11 11 12 10 14 17 20 12 10 8 11 15 25 19 22 17 33 36 35 42 40 31 31
45 41 34 22 15 14 14 13 14 13 6 9 4 5 9 6 6 7 4 8 13 15 15 14 17 12 13 8 8 5 12 14 18 14 15 14 24 21 34 37 34 36 37 41 38
46 42 33 19 16 13 17 16 25 5 3 8 2 5 7 11 5 7 8 13 12 13 13 16 23 5 5 5 10 10 8 12 17 17 19 19 20 11 22 17 14 24 16 27 34
47 41 28 16 14 16 16 18 22 4 10 17 20 21 27 19 15 16 6 13 13 15 7 20 6 7 11 13 14 18 19 17 15 15 22 22 22 17 16 20 15 22 23 21 24
47 41 22 16 10 11 13 16 15 15 12 22 23 21 14 7 10 11 9 15 13 7 10 7 10 14 15 13 14 17 20 18 15 13 16 20 25 17 10 17 12 18 27 23 28
48 40 18 18 6 11 13 19 16 13 6 14 5 3 3 3 7 12 13 14 6 6 11 8 13 18 19 17 16 18 13 12 15 9 15 14 19 17 14 21 29 31 27 21 34
47 36 19 20 6 12 17 21 16 18 1 6 4 3 8 6 8 17 16 9 2 9 9 12 17 16 17 15 13 19 14 14 10 6 8 7 13 20 16 18 20 27 29 33 37
46 30 21 17 12 18 28 22 12 7 4 4 11 5 29 16 25 23 23 7 8 13 11 13 16 18 17 17 17 19 11 14 4 6 7 5 1 17 12 20 20 19 25 33 40
45 23 18 21 16 26 26 12 10 2 4 7 14 19 15 15 10 11 22 7 17 3 10 15 19 12 18 20 20 19 6 6 6 4 9 13 7 19 8 14 7 14 27 27 21
42 14 14 25 22 27 20 19 2 5 13 14 15 19 15 17 20 18 14 11 7 11 9 12 12 17 10 14 10 8 4 5 4 3 10 9 11 15 17 13 14 12 19 29 29
35 9 9 24 22 24 27 2 5 16 13 15 14 17 12 18 13 13 12 8 9 16 8 5 8 10 19 13 12 15 3 4 5 4 13 12 12 9 10 7 10 7 17 28 30
25 8 7 21 21 20 21 6 4 7 12 13 14 9 11 17 14 14 14 8 5 7 5 6 7 21 21 19 14 14 11 8 9 14 15 11 18 14 6 3 2 11 16 24 32
21 10 1 26 23 19 4 5 5 9 9 9 8 5 15 13 11 13 9 10 7 11 12 5 12 10 16 19 12 10 11 5 4 4 14 8 15 8 4 3 6 7 9 19 20
18 9 9 28 10 13 4 4 5 10 8 4 10 11 11 11 10 10 6 12 10 10 9 10 6 10 11 4 14 15 11 8 6 4 5 9 6 5 2 3 2 7 15 22 18
13 5 15 20 9 7 4 9 11 14 6 5 8 8 9 9 6 7 6 10 14 13 10 5 4 8 18 22 20 13 6 6 4 3 5 4 10 9 12 4 7 8 18 25 20
22 6 16 17 4 5 7 10 14 12 7 6 5 10 5 3 5 6 11 12 16 7 3 2 4 7 8 4 1 3 10 5 9 9 14 10 8 10 16 11 11 12 19 25 30
11 4 11 12 24 9 8 11 8 10 10 17 13 14 4 5 5 9 19 9 12 17 16 19 3 7 11 17 15 23 22 20 15 8 13 16 24 18 14 17 11 19 22 24 30
8 6 8 4 11 19 15 12 12 10 9 13 12 8 9 5 14 15 15 19 15 28 6 5 6 10 18 22 22 27 27 23 18 12 10 15 19 21 13 13 8 19 20 24 27
9 8 10 22 16 15 9 10 12 10 9 7 10 16 7 7 9 19 19 17 13 10 6 5 4 6 15 21 24 22 17 7 6 6 9 13 19 9 21 26 14 17 21 22 29
13 13 8 9 9 8 7 14 16 17 6 21 14 7 8 10 26 34 34 34 19 11 10 3 2 4 11 12 20 2 7 8 10 11 9 13 16 16 20 14 17 24 25 31 28
Wind_Direction
7 4 1 358 355 353 349 357 355 359 4 7 5 1 360 354 310 322 61 343 312 300 268 23 283 240 248 250 246 256 248 249 254 260 278 287 289 295 312 308 316 298 354 48 126
8 2 357 352 350 348 344 337 341 343 351 358 4 356 348 337 319 279 103 355 343 307 206 13 317 280 226 233 229 218 241 249 271 270 277 294 299 318 329 323 318 329 248 242 171
9 4 356 349 346 345 342 335 329 332 337 341 340 350 338 333 332 202 173 1 342 352 344 41 344 314 297 278 236 239 243 260 270 275 283 289 295 302 308 299 301 327 327 320 228
10 5 358 351 346 342 339 335 331 330 334 336 333 340 343 339 31 181 244 342 351 315 27 354 282 249 240 240 253 258 255 253 256 260 264 274 291 296 290 283 295 302 311 320 307
9 6 2 356 350 345 342 337 332 328 331 334 329 330 345 328 271 298 333 359 36 40 352 316 313 305 304 333 329 311 306 311 313 314 310 295 275 277 281 287 292 294 301 304 308
5 3 1 358 354 351 347 343 336 333 329 328 327 325 335 286 11 355 10 353 347 314 318 310 316 321 319 291 291 302 308 303 302 299 301 301 294 299 290 292 291 285 286 291 293
3 0 359 358 358 0 353 346 345 340 329 320 321 320 300 263 145 319 315 301 303 275 292 297 309 328 321 324 297 315 310 303 296 299 296 298 287 272 281 281 286 286 284 278 279
2 0 359 357 0 360 356 359 347 346 346 341 4 332 272 137 314 227 281 292 281 278 291 292 285 270 282 281 282 281 273 283 272 261 265 250 255 261 259 255 257 268 275 272 271
360 359 357 359 3 10 7 348 339 333 330 344 335 343 290 319 270 253 290 319 312 298 305 301 292 264 274 275 289 254 269 266 274 258 260 245 261 255 252 246 241 244 251 258 261
359 359 357 7 15 19 19 2 351 14 33 335 79 298 297 327 334 233 277 298 278 272 275 287 276 249 248 247 256 261 274 291 296 301 305 294 286 295 300 294 271 247 251 248 247
357 357 359 12 27 25 26 26 14 8 336 282 271 274 290 302 303 285 289 293 280 278 280 275 262 248 247 248 270 283 280 278 290 299 299 293 287 287 295 282 282 288 275 278 289
355 356 1 6 18 24 7 12 2 319 311 298 276 264 268 285 296 299 287 252 262 282 296 315 282 276 283 289 295 296 293 291 287 274 284 323 290 294 307 298 286 302 256 267 279
353 355 2 0 14 10 350 349 343 330 304 301 79 221 114 338 274 267 270 259 278 277 276 279 295 298 294 296 290 279 281 286 302 1 304 326 298 295 309 304 287 275 265 245 257
354 356 360 4 28 350 341 342 336 321 257 183 186 124 335 262 265 330 305 288 298 284 277 271 268 277 283 288 292 287 289 280 294 323 270 115 289 283 284 280 280 250 248 248 242
355 357 10 7 346 349 334 326 333 320 63 94 48 53 347 324 317 309 306 228 237 246 265 281 296 284 279 274 272 273 275 273 266 256 285 236 257 280 278 277 260 250 252 251 238
354 353 16 6 356 346 325 340 321 22 41 7 12 347 338 327 298 350 13 288 301 320 315 299 313 310 303 297 291 295 271 283 233 231 269 271 188 267 265 252 260 285 290 291 293
353 1 11 4 353 340 349 348 13 41 352 356 348 330 309 6 2 359 352 336 347 323 301 295 294 290 319 332 322 307 336 319 313 233 256 265 251 244 267 269 274 297 314 299 286
354 17 21 7 358 339 344 336 18 13 17 343 333 313 17 356 350 342 337 324 358 359 331 295 312 333 343 318 303 304 256 196 271 264 290 291 272 247 253 269 247 330 351 345 329
-0 22 49 7 351 347 345 47 28 15 351 342 331 354 353 348 356 357 346 306 32 19 1 306 254 326 308 311 303 295 275 260 265 266 283 270 263 274 243 307 43 28 350 334 318
359 13 359 350 342 344 32 7 9 17 345 341 340 319 328 339 353 345 323 293 13 9 17 341 302 287 310 327 291 290 290 319 320 309 273 259 275 258 347 352 31 328 312 316 315
5 343 357 347 34 11 71 14 316 322 325 303 332 312 315 338 341 314 272 307 18 325 341 300 219 292 307 276 306 314 312 301 296 295 268 285 252 207 27 251 181 280 290 317 302
8 338 357 1 17 34 357 348 324 327 12 359 330 326 322 352 313 309 279 329 338 311 311 321 282 281 282 277 269 269 355 354 274 246 239 261 259 253 276 349 290 287 303 316 327
341 295 341 21 28 10 340 333 323 327 26 15 296 302 44 25 321 285 295 299 326 22 309 272 238 295 306 299 91 342 307 249 265 262 257 267 256 317 314 336 345 334 322 326 324
340 324 349 349 1 348 318 295 309 342 0 344 321 302 261 250 249 279 287 292 256 283 260 270 214 228 266 271 289 287 281 282 280 271 278 261 285 289 327 316 328 317 318 324 315
4 351 349 304 327 310 300 285 323 338 338 325 305 326 309 304 304 276 292 301 300 290 298 164 256 249 256 263 269 274 278 280 280 275 263 303 287 291 307 329 311 315 334 330 319
353 345 313 300 299 301 306 349 327 319 338 324 322 303 332 292 272 307 311 298 286 293 247 170 276 284 272 268 265 277 285 308 269 290 289 312 300 268 321 314 310 322 329 318 313
330 322 308 277 299 316 336 322 323 335 318 309 299 330 320 319 309 291 283 275 254 246 246 168 266 267 289 315 301 331 22 353 305 287 302 294 292 303 302 324 328 334 323 304 301